Akron, New York, United States (14001)
Lat: 43.02N, Lon: 78.5W
Wx Zone: NYZ010
Local Info
Past Weather Observations for Today

NOTE: This archive is for the closest National Weather Service station to Akron. Information may differ from the station used for current weather conditions.

Click here for Long-term Archive

Time Weather Temperature Dewpoint Humidity Pressure Winds Precip Visibility
22:54
Overcast
55°F / 13°C 52°F / 11°C 88% 29.74 in
(1007 mb)
NW 17.3 mph
(NW 28 kph)
0.00 in
(0.00 mm)
8SM
22:28
Overcast
57°F / 14°C 50°F / 10°C 77% 29.71 in
(1006 mb)
NW 19.6 mph
(NW 32 kph)
0.00 in
(0.00 mm)
10SM
22:08
Mostly Cloudy
Light Rain
59°F / 15°C 52°F / 11°C 77% 29.71 in
(1006 mb)
NW 13.8 mph
(NW 22 kph)
0.00 in
(0.00 mm)
10SM
21:54
Mostly Cloudy
61°F / 16°C 52°F / 11°C 72% 29.68 in
(1005 mb)
NW 15 mph
(NW 24 kph)
- 10SM
20:54
Mostly Cloudy
63°F / 17°C 52°F / 11°C 68% 29.68 in
(1005 mb)
W 9.2 mph
(W 15 kph)
- 10SM
19:54
Mostly Cloudy
63°F / 17°C 52°F / 11°C 68% 29.65 in
(1004 mb)
SSW 12.7 mph
(SSW 20 kph)
0.00 in
(0.00 mm)
10SM
18:54
Mostly Cloudy
Light Rain
64°F / 18°C 54°F / 12°C 68% 29.62 in
(1003 mb)
SSW 16.1 mph
(SSW 26 kph)
0.00 in
(0.00 mm)
10SM
17:54
Partly Cloudy
66°F / 19°C 55°F / 13°C 68% 29.62 in
(1003 mb)
SSW 23 mph
(SSW 37 kph)
- 10SM
16:54
Partly Cloudy
68°F / 20°C 54°F / 12°C 60% 29.62 in
(1003 mb)
SSW 20.7 mph
(SSW 33 kph)
- 10SM
15:54
Partly Cloudy
70°F / 21°C 55°F / 13°C 60% 29.62 in
(1003 mb)
SW 18.4 mph
(SW 30 kph)
- 10SM
14:54
Partly Cloudy
70°F / 21°C 55°F / 13°C 60% 29.59 in
(1002 mb)
SSW 26.5 mph
(SSW 43 kph)
- 10SM
13:54
Partly Cloudy
72°F / 22°C 61°F / 16°C 69% 29.59 in
(1002 mb)
SW 18.4 mph
(SW 30 kph)
- 10SM
12:54
Partly Cloudy
72°F / 22°C 63°F / 17°C 73% 29.59 in
(1002 mb)
SW 25.3 mph
(SW 41 kph)
- 10SM
11:54
Partly Cloudy
73°F / 23°C 63°F / 17°C 69% 29.59 in
(1002 mb)
SSW 25.3 mph
(SSW 41 kph)
- 10SM
10:54
Mostly Cloudy
73°F / 23°C 63°F / 17°C 69% 29.62 in
(1003 mb)
SW 26.5 mph
(SW 43 kph)
- 10SM
09:54
Mostly Cloudy
72°F / 22°C 64°F / 18°C 78% 29.59 in
(1002 mb)
SW 21.9 mph
(SW 35 kph)
- 10SM
08:54
Overcast
70°F / 21°C 64°F / 18°C 83% 29.62 in
(1003 mb)
SSE 17.3 mph
(SSE 28 kph)
0.00 in
(0.00 mm)
10SM
07:54
Overcast
68°F / 20°C 64°F / 18°C 88% 29.62 in
(1003 mb)
S 16.1 mph
(S 26 kph)
0.02 in
(0.51 mm)
8SM
06:54
Overcast
Light Rain
66°F / 19°C 63°F / 17°C 88% 29.65 in
(1004 mb)
S 10.4 mph
(S 17 kph)
0.06 in
(1.52 mm)
9SM
06:43
Overcast
Light Rain
66°F / 19°C 63°F / 17°C 88% 29.65 in
(1004 mb)
S 8.1 mph
(S 13 kph)
0.06 in
(1.52 mm)
9SM
05:54
Overcast
Light Rain
66°F / 19°C 63°F / 17°C 88% 29.68 in
(1005 mb)
S 9.2 mph
(S 15 kph)
0.03 in
(0.76 mm)
7SM
04:54
Overcast
68°F / 20°C 61°F / 16°C 78% 29.71 in
(1006 mb)
SSE 6.9 mph
(SSE 11 kph)
0.00 in
(0.00 mm)
10SM
03:54
Overcast
Light Rain
70°F / 21°C 61°F / 16°C 73% 29.71 in
(1006 mb)
SW 12.7 mph
(SW 20 kph)
0.00 in
(0.00 mm)
10SM
02:54
Overcast
70°F / 21°C 61°F / 16°C 73% 29.74 in
(1007 mb)
SW 15 mph
(SW 24 kph)
0.00 in
(0.00 mm)
10SM
01:54
Mostly Cloudy
72°F / 22°C 61°F / 16°C 69% 29.74 in
(1007 mb)
SW 15 mph
(SW 24 kph)
- 10SM
00:54
Overcast
72°F / 22°C 61°F / 16°C 69% 29.77 in
(1008 mb)
SSE 15 mph
(SSE 24 kph)
- 10SM
Time Weather Temperature Dewpoint Humidity Pressure Winds Precip Visibility


Weather for websites

WeatherForYou.com, LLC is not responsible for any damages or problems caused by this service. Current weather conditions are obtained from the closest station including government and personal stations which may have varying degrees of accuracy. Weather forecasts are derived from the NOAA NDFD. Like all things, this site belongs to Jesus Christ... He just trusts me to maintain it. If you have any questions or comments email webmaster@weatherforyou.com

Copyright © 2014, WeatherForYou.com LLC. All rights reserved.